Del Bajio, Mexico

4:47 PM CDT on August 17, 2017 (GMT -0500)
De Guanajuato International

Weather History for MMLO - November, 2012

Change the Weather History Date:

Monday, November 12, 2012

  Actual Average Record
Temperature  
Mean Temperature 64 °F -  
Max Temperature 78 °F 77 °F 89 °F (2005)
Min Temperature 51 °F 47 °F 44 °F (2004)
Growing Degree Days 14 (Base 50)    
Moisture  
Dew Point 46 °F    
Average Humidity 56    
Maximum Humidity 82    
Minimum Humidity 32    
Precipitation  
Precipitation 0.00 in - - ()
Sea Level Pressure  
Sea Level Pressure 30.17 in    
Wind  
Wind Speed 6 mph ()    
Max Wind Speed 15 mph    
Max Gust Speed -    
Visibility 8.2 miles    
Events      
Averages and records for this station are not official NWS values.
T = Trace of Precipitation, MM = Missing Value Source: Averaged Metar Reports

Daily Weather History Graph

Daily Weather History Graph

Search for Another Location

Airport or City:

Trip Planner

Search our weather history database for the weather conditions in past years. The results will help you decide how hot, cold, wet, or windy it might be!

Date:

Astronomy

Nov. 12, 2012 Rise Set
Actual Time 6:54 AM CST 6:05 PM CST
Civil Twilight 6:31 AM CST 6:28 PM CST
Nautical Twilight 6:04 AM CST 6:55 PM CST
Astronomical Twilight 5:38 AM CST 7:21 PM CST
Moon 5:28 AM CST (11/12) 5:08 PM CST (11/12)
Length of Visible Light 11h 57m
Length of Day
11h 10m
Waning Crescent, 2% of the Moon is Illuminated
Nov 12
Waning Crescent
Nov 13
New
Nov 20
First Quarter
Nov 28
Full
Dec 6
Last Quarter

Hourly Weather History & Observations

Time (CST) Temp. Dew Point Humidity Pressure Visibility Wind Dir Wind Speed Gust Speed Precip Events Conditions
12:40 AM 55.4 °F 46.4 °F 72% 30.24 in 8.0 mi Calm Calm - N/A   Clear
2:42 AM 55.4 °F 46.4 °F 72% 29.86 in 8.0 mi Calm Calm - N/A   Clear
3:41 AM 53.6 °F 46.4 °F 77% 30.24 in 8.0 mi Calm Calm - N/A   Clear
4:41 AM 51.8 °F 46.4 °F 82% 30.24 in 8.0 mi East 5.8 mph - N/A   Clear
5:43 AM 53.6 °F 46.4 °F 77% 29.93 in 8.0 mi SE 3.5 mph - N/A   Clear
6:44 AM 55.4 °F 48.2 °F 77% 30.27 in 8.0 mi ENE 6.9 mph - N/A   Partly Cloudy
7:45 AM 60.8 °F 48.2 °F 63% 30.29 in 6.0 mi ENE 6.9 mph - N/A   Partly Cloudy
8:49 AM 66.2 °F 48.2 °F 52% 29.99 in 6.0 mi ENE 15.0 mph - N/A   Scattered Clouds
9:47 AM 71.6 °F 46.4 °F 41% 30.35 in 6.0 mi ENE 13.8 mph - N/A   Scattered Clouds
10:50 AM 73.4 °F 46.4 °F 38% 30.37 in 8.0 mi ENE 13.8 mph - N/A   Scattered Clouds
11:49 AM 77.0 °F 46.4 °F 34% 29.96 in 10.0 mi NE 9.2 mph - N/A   Scattered Clouds
12:51 PM 78.8 °F 46.4 °F 32% 30.29 in 10.0 mi ENE 13.8 mph - N/A   Scattered Clouds
1:49 PM 78.8 °F 46.4 °F 32% 30.25 in 10.0 mi NE 13.8 mph - N/A   Partly Cloudy
4:45 PM 75.2 °F 44.6 °F 34% 30.27 in 10.0 mi ENE 13.8 mph - N/A   Partly Cloudy
5:47 PM 68.0 °F 44.6 °F 43% 29.94 in 10.0 mi NE 11.5 mph - N/A   Scattered Clouds
6:55 PM 62.6 °F 46.4 °F 55% 30.30 in 8.0 mi East 6.9 mph - N/A   Scattered Clouds
7:41 PM 62.6 °F 46.4 °F 55% 30.33 in 8.0 mi ENE 8.1 mph - N/A   Scattered Clouds
8:42 PM 60.8 °F 48.2 °F 63% 30.00 in 8.0 mi ENE 6.9 mph - N/A   Scattered Clouds
9:41 PM 60.8 °F 48.2 °F 63% 30.35 in 8.0 mi ENE 10.4 mph - N/A   Scattered Clouds
11:46 PM 57.2 °F 42.8 °F 59% 30.03 in 8.0 mi ENE 13.8 mph - N/A   Clear